Weather History for KMPZ - April, 2013

Change the Weather History Date:

Wednesday, April 17, 2013

  Actual Average Record
Temperature  
Mean Temperature 52 °F -  
Max Temperature 60 °F 66 °F 86 °F (2004)
Min Temperature 45 °F 41 °F 25 °F (1951)
Degree Days  
Heating Degree Days 12    
Growing Degree Days 2 (Base 50)    
Moisture  
Dew Point 42 °F    
Average Humidity 71    
Maximum Humidity 83    
Minimum Humidity 54    
Precipitation  
Precipitation 1.90 in - - ()
Sea Level Pressure  
Sea Level Pressure 29.98 in    
Wind  
Wind Speed 12 mph (ENE)    
Max Wind Speed 25 mph    
Max Gust Speed 34 mph    
Visibility 8 miles    
Events Rain    
Averages and records for this station are not official NWS values.
T = Trace of Precipitation, MM = Missing Value Source: NWS Daily Summary

Daily Weather History Graph

Daily Weather History Graph

Search for Another Location

Airport or City:

Trip Planner

Search our weather history database for the weather conditions in past years. The results will help you decide how hot, cold, wet, or windy it might be!

Date:

Astronomy

Apr. 17, 2013 Rise Set
Actual Time 6:23 AM CDT 7:48 PM CDT
Civil Twilight 5:54 AM CDT 8:16 PM CDT
Nautical Twilight 5:20 AM CDT 8:51 PM CDT
Astronomical Twilight 4:44 AM CDT 9:28 PM CDT
Moon 11:36 AM CDT (4/17) 1:27 AM CDT (4/17)
Length of Visible Light 14h 22m
Length of Day
13h 24m
Waxing Crescent, 42% of the Moon is Illuminated
Apr 17
Waxing Crescent
Apr 18
First Quarter
Apr 25
Full
May 2
Last Quarter
May 9
New

Hourly Weather History & Observations

Time (CDT) Temp. Windchill Dew Point Humidity Pressure Visibility Wind Dir Wind Speed Gust Speed Precip Events Conditions
12:15 AM 52.2 °F - 37.4 °F 57% 30.19 in 10.0 mi NE 6.9 mph - N/A   Overcast
12:35 AM 52.3 °F - 37.2 °F 56% 30.19 in 10.0 mi NNE 5.8 mph - N/A   Overcast
12:55 AM 52.3 °F - 37.6 °F 57% 30.18 in 10.0 mi NE 8.1 mph - N/A   Overcast
1:15 AM 52.5 °F - 37.6 °F 57% 30.20 in 10.0 mi NE 5.8 mph - N/A   Overcast
1:35 AM 52.2 °F - 38.5 °F 60% 30.19 in 10.0 mi ENE 8.1 mph - N/A   Overcast
1:55 AM 52.2 °F - 38.5 °F 60% 30.19 in 10.0 mi ENE 5.8 mph - N/A   Overcast
2:15 AM 52.3 °F - 38.3 °F 59% 30.18 in 10.0 mi NE 8.1 mph - N/A   Overcast
2:35 AM 52.7 °F - 38.5 °F 58% 30.17 in 10.0 mi ENE 10.4 mph - N/A   Overcast
2:55 AM 52.2 °F - 39.0 °F 61% 30.16 in 10.0 mi ENE 11.5 mph - N/A   Overcast
3:15 AM 52.7 °F - 39.6 °F 61% 30.15 in 10.0 mi ENE 12.7 mph - N/A   Overcast
3:35 AM 52.7 °F - 41.0 °F 64% 30.15 in 10.0 mi East 13.8 mph 20.7 mph N/A   Overcast
3:55 AM 52.7 °F - 40.6 °F 64% 30.15 in 10.0 mi East 15.0 mph - N/A   Overcast
4:15 AM 52.0 °F - 39.2 °F 62% 30.14 in 10.0 mi East 18.4 mph 21.9 mph N/A   Light Drizzle
4:35 AM 50.9 °F - 36.1 °F 57% 30.13 in 10.0 mi East 17.3 mph 24.2 mph N/A   Overcast
4:55 AM 50.9 °F - 36.9 °F 59% 30.14 in 10.0 mi NE 10.4 mph 20.7 mph N/A   Overcast
5:15 AM 50.2 °F - 37.0 °F 61% 30.13 in 10.0 mi NE 16.1 mph - N/A   Overcast
5:35 AM 49.3 °F - 36.3 °F 61% 30.12 in 10.0 mi ENE 19.6 mph - N/A   Overcast
5:55 AM 49.1 °F - 37.0 °F 63% 30.12 in 10.0 mi ENE 11.5 mph 28.8 mph N/A   Overcast
6:15 AM 49.1 °F - 36.3 °F 61% 30.13 in 10.0 mi ENE 13.8 mph 18.4 mph N/A Rain Light Rain
6:35 AM 48.6 °F - 36.0 °F 62% 30.10 in 10.0 mi East 16.1 mph - N/A   Overcast
6:55 AM 48.6 °F - 35.6 °F 61% 30.09 in 10.0 mi East 15.0 mph 21.9 mph N/A   Overcast
7:15 AM 49.3 °F - 33.4 °F 54% 30.10 in 10.0 mi East 17.3 mph 21.9 mph N/A   Overcast
7:35 AM 49.3 °F - 33.1 °F 54% 30.08 in 10.0 mi East 18.4 mph - N/A   Overcast
7:55 AM 49.1 °F - 33.3 °F 54% 30.07 in 10.0 mi East 17.3 mph 26.5 mph N/A   Overcast
8:15 AM 49.1 °F - 34.0 °F 56% 30.05 in 10.0 mi East 18.4 mph 24.2 mph N/A   Overcast
8:35 AM 49.1 °F - 34.5 °F 57% 30.07 in 10.0 mi East 17.3 mph - N/A   Overcast
9:15 AM 48.0 °F - 37.0 °F 66% 30.03 in 5.0 mi East 16.1 mph - N/A   Haze
9:35 AM 48.4 °F - 37.4 °F 66% 30.01 in 10.0 mi East 19.6 mph 24.2 mph N/A   Overcast
9:55 AM 48.6 °F - 37.8 °F 66% 30.03 in 10.0 mi East 18.4 mph - N/A   Overcast
10:15 AM 47.5 °F - 39.4 °F 73% 30.02 in 4.0 mi East 13.8 mph - N/A   Haze
10:35 AM 47.1 °F - 40.8 °F 79% 30.01 in 2.0 mi ESE 12.7 mph - N/A   Haze
10:55 AM 47.3 °F - 41.0 °F 79% 30.01 in 3.0 mi ESE 9.2 mph - N/A   Haze
11:15 AM 47.5 °F - 41.4 °F 79% 30.04 in 2.5 mi NNE 6.9 mph - N/A   Haze
11:35 AM 47.3 °F - 41.5 °F 80% 30.10 in 1.8 mi WNW 16.1 mph 23.0 mph N/A Rain Rain
11:55 AM 46.6 °F - 41.0 °F 81% 30.07 in 1.8 mi North 17.3 mph 25.3 mph 0.04 in Rain Heavy Rain
12:15 PM 45.5 °F 38.3 °F 39.6 °F 80% 30.05 in 2.0 mi NNE 17.3 mph 25.3 mph 0.11 in Rain Light Rain
12:35 PM 45.5 °F 38.1 °F 40.1 °F 81% 30.01 in 1.5 mi ENE 18.4 mph - 0.26 in   Unknown
12:55 PM 46.2 °F 39.8 °F 40.8 °F 81% 29.98 in 3.0 mi NE 15.0 mph - 0.43 in   Unknown
1:15 PM 46.6 °F - 41.0 °F 81% 29.95 in 4.0 mi ENE 18.4 mph 25.3 mph 0.07 in Rain Rain
1:35 PM 46.6 °F - 41.2 °F 81% 29.95 in 0.5 mi ENE 17.3 mph - 0.29 in   Unknown
1:55 PM 46.6 °F - 41.2 °F 81% 30.01 in 7.0 mi NNE 6.9 mph - 0.32 in Rain Rain
2:15 PM 46.8 °F - 41.4 °F 81% 30.01 in 7.0 mi East 10.4 mph - 0.02 in Rain Rain
2:35 PM 46.9 °F - 41.5 °F 81% 29.91 in 5.0 mi ENE 20.7 mph 25.3 mph 0.04 in Rain Light Rain
2:55 PM 47.5 °F - 42.1 °F 82% 30.00 in 7.0 mi SSE 13.8 mph 25.3 mph 0.04 in Rain Light Rain
3:35 PM 47.7 °F - 42.3 °F 82% 29.85 in 5.0 mi East 21.9 mph - 0.07 in Rain Rain
3:55 PM 48.2 °F - 42.8 °F 82% 29.79 in 10.0 mi East 25.3 mph 31.1 mph 0.07 in Rain Light Rain
4:35 PM 50.0 °F - 43.7 °F 79% 29.93 in 10.0 mi Calm Calm - N/A   Overcast
4:55 PM 50.0 °F - 43.9 °F 79% 29.95 in 4.0 mi SE 6.9 mph - 0.06 in Rain Heavy Rain
5:35 PM 49.6 °F - 44.6 °F 83% 29.83 in 5.0 mi ENE 15.0 mph 18.4 mph 0.01 in Rain Light Rain
6:15 PM 51.6 °F - 46.0 °F 81% 29.81 in 10.0 mi East 12.7 mph - 0.03 in Rain Rain
6:35 PM 52.2 °F - 46.8 °F 82% 29.77 in 7.0 mi SE 20.7 mph 28.8 mph 0.05 in Rain Light Rain
6:55 PM 52.7 °F - 47.1 °F 81% 29.76 in 10.0 mi ESE 21.9 mph 27.6 mph 0.05 in Rain Light Rain
7:15 PM 54.1 °F - 48.6 °F 81% 29.76 in 10.0 mi ESE 16.1 mph - N/A   Scattered Clouds
7:35 PM 56.5 °F - 50.4 °F 80% 29.76 in 10.0 mi ESE 18.4 mph 21.9 mph N/A Rain Light Rain
7:55 PM 56.5 °F - 50.7 °F 81% 29.73 in 10.0 mi East 11.5 mph 25.3 mph 0.03 in Rain Light Rain
8:15 PM 58.8 °F - 52.2 °F 79% 29.70 in 10.0 mi ENE 13.8 mph 21.9 mph 0.01 in Rain Light Rain
8:35 PM 58.6 °F - 52.2 °F 79% 29.71 in 10.0 mi North 6.9 mph - 0.01 in Rain Light Rain
8:55 PM 57.6 °F - 51.6 °F 81% 29.72 in 7.0 mi ENE 5.8 mph - 0.03 in Rain Rain
9:15 PM 60.1 °F - 54.0 °F 80% 29.71 in 10.0 mi East 12.7 mph 18.4 mph N/A Rain Light Rain
9:35 PM 60.1 °F - 53.6 °F 79% 29.68 in 10.0 mi East 8.1 mph - 0.02 in Rain Light Rain
9:55 PM 60.3 °F - 54.3 °F 81% 29.68 in 10.0 mi ESE 6.9 mph - 0.03 in Rain Light Rain
10:15 PM 58.8 °F - 52.2 °F 79% 29.71 in 7.0 mi North 4.6 mph 17.3 mph N/A Rain Rain
10:35 PM 57.2 °F - 51.1 °F 80% 29.80 in 5.0 mi WNW 24.2 mph 34.5 mph 0.06 in Rain Heavy Rain
10:55 PM 57.6 °F - 51.8 °F 81% 29.75 in 3.0 mi North 20.7 mph 25.3 mph 0.22 in Rain Heavy Rain
11:15 PM 58.3 °F - 52.3 °F 81% 29.75 in 2.0 mi North 18.4 mph - 0.30 in Rain Heavy Rain
11:35 PM 58.1 °F - 52.3 °F 81% 29.73 in 4.0 mi NNE 17.3 mph - 0.51 in Rain Rain
11:55 PM 58.3 °F - 52.7 °F 82% 29.71 in 7.0 mi NNE 16.1 mph - 0.57 in Rain Rain